STARLINK-1244, 45196

Orbit data source: Space-Track

STARLINK-1244, 45196 is a payload satellite owned by SpaceX/Seattle (US) in LEO that was launched on Mon, 17 Feb 2020 UTC via an FALCON 9 launch vehicle from the Air Force Eastern Test Range (AFETR). Payloads include a variety of satellites, spacecraft, and rockets equipped with specific instruments for various scientific and technological missions. These include communications satellites like Starlink; space stations such as the ISS; scientific satellites like the Hubble; Earth observation satellites from companies like Planet Labs, Umbra, and HawkEye 360; GPS; miniature CubeSats for education and research; and military/defense satellites.

Loading next visibility...
STARLINK-1244 details
Identifier
45196, 2020-012U
Orbit
LEO
Last TLE update7 hours ago
Origin
Flag of USSpaceX/Seattle (US)
ManufacturerSpaceX/Seattle
MissionOperational Commercial Communications
Bus & MotorSTARLINK, Unknown motor
Mass260 kg wet, ~248 kg dry
Launch date (UTC)
2020-02-17 (5 years ago)
Launch vehicle
FALCON 9
Launch site
Air Force Eastern Test Range (AFETR)
Object type
Payload
Rocket body
Debris
Shape & HBRBox + 1 Pan, 8.86 m
Radar Cross Section13.562 m², Large (>1 m²)

Expand to show TLE details & history

TLE from 7 hours ago
0 STARLINK-1244
1 45196U 20012U   24340.15863448 -.00011105  00000-0 -72821-3 0  9995
2 45196  53.0578 309.5386 0001943 108.2070 251.9131 15.06378322264678
Epoch: 2024-12-05T03:48Z
Definitive object data (Epoch: 2024-12-05T03:48:26.019Z)
Latitude0.00003°
Longitude177.98676°
Altitude548.575 km
Speed7.589 km/s
True Right ascension20h 38m 09s
True Declination0° 00' 00"
Sunlit
Object was in daylight at TLE epoch
Visualization TLE readout
Latitude53.20771°
Longitude-92.76068°
Altitude552.574 km
Speed7.593 km/s
Apparent Right ascension23h 15m 12s
Apparent Declination12° 49' 34"
Sunlit
Object is in full shadow
Visualization observer readout
Local Sidereal Time08:32:56
Azimuth315.514° NNW
Elevation-25.193°
Doppler factor1
Orbital elements
Apogee altitude548.894 km
Perigee altitude546.203 km
Semi-major axis6,925.685 km
Eccentricity0.0001943
Inclination53.0578°
RAAN309.5386°
Arg. of periapsis108.207°
True anomaly251.89194°
Mean anomaly251.9131°
Eccentric anomaly251.90252°
Mean motion3.76573 °/min
BSTAR-0.00072821
Orbital period95.6 mins
Loading maneuver chart data...

STARLINK-1244 Visibility forecast

Observer location: undefined°, undefined

Span
Click to sort rows by Start time (UTC) header in descending order
Start Az.
Max El. time (UTC)
Max El. Az.
Max El.
End time (UTC)
End Az.
7 mins2024-12-06 00:40:32.083Z219.946° SW2024-12-06 00:44:32.083Z92.798° ESE41.75°2024-12-06 00:47:32.083Z55.257° ENE
4 mins2024-12-06 02:22:32.083Z305.038° NW2024-12-06 02:23:32.083Z325.974° NNW21.839°2024-12-06 02:26:32.083Z23.472° NE
6 mins2024-12-06 07:23:32.083Z319.951° NNW2024-12-06 07:25:32.083Z24.421° NE43.005°2024-12-06 07:29:32.083Z121.842° SE
|